Location: Unspecified
(0.0000°N, 0.0000°E)
Time: 18:11:35
(UTC+00:00)

N. Korean satellite - Pass Details

Date: 24 January 2020
Orbit: 454 x 507 km, 97.2° (Epoch: 22 January)

Event Time Altitude Azimuth Distance (km) Brightness Sun altitude
Rises 04:46:55 0° 35° (NE) 2,560 10.4 -20.0°
Reaches altitude 10° 04:49:21 10° 52° (NE) 1,690 9.7 -19.4°
Maximum altitude 04:52:06 20° 101° (ESE) 1,188 9.4 -18.8°
Drops below altitude 10° 04:54:54 10° 151° (SSE) 1,712 10.0 -18.1°
Sets 04:57:22 0° 167° (SSE) 2,604 10.7 -17.5°
